Regional Weather Roundup
Issued by NWS Wakefield, VA

Home | Current Version | Previous Version | Text Only | Print | Product List | Glossary On
Versions: 1 2 3 4 5 6 7 8 9 10 11 12 13 14 15 16 17 18 19 20 21 22 23 24 25 26 27 28 29 30 31 32 33 34 35 36 37 38 39 40 41 42 43 44 45 46 47 48 49 50
000
ASUS41 KAKQ 050415
RWRAKQ

REGIONAL WEATHER ROUNDUP
NATIONAL WEATHER SERVICE WAKEFIELD VA
1200 AM EDT SAT SEP 05 2015

Note: "fair" indicates few or no clouds below 12,000 feet with no
significant weather and/or obstructions to visibility. * = Denotes
station may not report precipitation (e.g., rain,snow,etc.),
thunder or fog.

VAZ042-051-052>054-056-050500-
NORTHERN VIRGINIA

CITY           SKY/WX    TMP DP  RH WIND       PRES   REMARKS
WASH NATIONAL  MOCLDY    77  71  82 E10       30.14S
DULLES         PTCLDY    74  70  87 E7        30.14S
FORT BELVOIR   PTCLDY    75  70  83 VRB2      30.13S
QUANTICO       PTCLDY    75  70  84 E8        30.14S
FREDERICKSBRG* MOCLDY    75  71  87 E3        30.12S
STAFFORD*      MOCLDY    73  70  91 E6        30.17S FOG
WARRENTON      PTCLDY    71  71  99 CALM      30.14R FOG
CULPEPER*      MOCLDY    71  69  95 CALM      30.14S
MANASSAS*      MOCLDY    75  72  88 E3        30.13F
LEESBURG*      PTCLDY    77  73  88 E3        30.15F
WINCHESTER     MOCLDY    72  68  88 CALM      30.16R
FRONT ROYAL*   FAIR      73  68  83 SE7       30.14R
LURAY*         CLOUDY    68  68 100 CALM      30.16R FOG
$$

VAZ048-049-060>072-079>083-050500-
CENTRAL AND SOUTH CENTRAL VIRGINIA

CITY           SKY/WX    TMP DP  RH WIND       PRES   REMARKS
RICHMOND       MOCLDY    74  69  85 NE5       30.11S
CHESTERFIELD*  FAIR      73  61  64 CALM      30.12S
PETERSBURG*    PTCLDY    68  68 100 CALM      30.11S FOG
HANOVER        PTCLDY    70  69  97 CALM      30.13S FOG
TAPPAHANNOCK*  PTCLDY    71  67  88 CALM      30.12S FOG
QUINTON*       FAIR      70  69  98 CALM      30.11R FOG
CHARLOTTSVILLE PTCLDY    69  66  90 CALM      30.14R
GORDONSVILLE*  FOG       68  68 100 CALM      30.14R VSB 1/2
ORANGE*        MOCLDY    70  70 100 CALM      30.15R FOG
LOUISA*        FOG       66  66 100 CALM      30.13R VSB 1/4
BUMPASS*       CLOUDY    70  69  98 CALM      30.12S
FARMVILLE*     PTCLDY    69  69 100 CALM      30.11S
CREWE*           N/A    N/A N/A N/A CALM      30.11S
FORT PICKETT*  FAIR      69  69  98 N5        30.11F
CHASE CITY*    FAIR      73  72  99 CALM      30.11S
CLARKSVILLE*   FAIR      70  68  94 NE5       30.09F
SOUTH HILL*    CLEAR     68  67  98 CALM      30.15S
LAWRENCEVILLE* FAIR      68  68 100 CALM      30.10S
EMPORIA*       PTCLDY    68  68 100 NW3       30.11R FOG
$$

VAZ088>098-050500-
SOUTHEAST VIRGINIA

CITY           SKY/WX    TMP DP  RH WIND       PRES   REMARKS
NORFOLK        PTCLDY    79  71  76 NE10      30.07R
VIRGINIA BEACH PTCLDY    81  70  69 NE9       30.06R
NORFOLK NAVAL  MOCLDY    80  72  76 NE12      30.09R
WEST POINT*    PTCLDY    72  69  90 CALM      30.12R
SALUDA*        MOCLDY    77  73  86 NE6       30.10R
NEWPORT NEWS   PTCLDY    78  72  81 NE8       30.09R
LANGLEY AFB    MOCLDY    77  73  88 NE13      30.07R
FORT EUSTIS    PTCLDY    78  78 100 NE8       30.07R
WILLIAMSBURG*  PTCLDY    75  73  94 CALM      30.10S
HR EXEC AP*      N/A     72  66  83 CALM      30.10R
FRANKLIN*      PTCLDY    68  68  98 CALM      30.09R FOG
WAKEFIELD      PTCLDY    72  68  87 CALM      30.09R FOG
$$

VAZ020-022-025-037-045-050500-
WEST CENTRAL AND SOUTHWEST VIRGINIA

CITY           SKY/WX    TMP DP  RH WIND       PRES   REMARKS
STAUNTON*      CLOUDY    70  67  89 CALM      30.19R
WAYNESBORO*    MOCLDY    69  67  94 CALM      30.19R
HOT SPRINGS VA MOCLDY    66  61  82 E3        30.26F
LYNCHBURG      MOCLDY    72  65  78 N7        30.15S
DANVILLE       PTCLDY    71  68  90 NE6       30.11R
SOUTH BOSTON*  FAIR      69  68  95 NE5       30.11S
MARTINSVILLE   PTCLDY    68  64  85 N3        30.16R
ROANOKE        MOCLDY    67  66  97 W7        30.17S
BLACKSBURG     CLEAR     63  63 100 CALM      30.22S FOG
DUBLIN*          N/A     65  64  97 CALM      30.21R
MARION*        CLOUDY    65  62  90 CALM      30.23S
HILLSVILLE*    MOCLDY    62  62 100 CALM      30.21R FOG
RICHLANDS*     FAIR      69  31  24 E3        30.19S
WISE*          PTCLDY    70  61  73 CALM      30.21S
ABINGDON*      CLEAR     72  61  67 NE3       30.16S
$$

MDZ021>025-VAZ099-100-050500-
SOUTHERN MARYLAND AND THE DELMARVA PENINSULA

CITY           SKY/WX    TMP DP  RH WIND       PRES   REMARKS
PATUXENT RIVER MOCLDY    75  71  87 NE10      30.13R
BAY BRIDGE APT   N/A     73  68  83 NE7       30.15S
LEONARDTOWN    NOT AVBL
DOVER          PTCLDY    73  71  93 NE10      30.14S
GEORGETOWN     CLEAR     74  70  87 NE8       30.15R
EASTON         NOT AVBL
CAMBRIDGE      PTCLDY    73  70  88 NE3       30.14R
SALISBURY      FAIR      73  71  93 NE8       30.13R
OCEAN CITY     PTCLDY    77  71  82 NE12      30.12R
WALLOPS ISLAND MOCLDY    77  73  87 NE18      30.11S
ACCOMACK*      CLOUDY    72  54  53 E13G18    30.07S
$$

NCZ012>017-030>032-050500-
NORTH CENTRAL AND EASTERN NORTH CAROLINA

CITY           SKY/WX    TMP DP  RH WIND       PRES   REMARKS
ROANOKE RAPIDS FAIR      70  68  94 NE5       30.08R FOG
RALEIGH        MOCLDY    73  69  87 NE6       30.08R
ELIZABETH CITY CLEAR     76  71  85 NE7       30.05S
AHOSKIE*       CLEAR     70  68  93 N3        30.08R FOG
EDENTON*       CLEAR     71  69  94 N5        30.06R FOG
CURRITUCK*     PTCLDY    79  69  71 NE10      30.06R
KILL DEVIL HLS PTCLDY    78  73  82 NE8       30.03R
MANTEO         CLEAR     78  73  84 E12       30.03S
CAPE HATTERAS  PTCLDY    79  72  79 E9        30.00S
TARBORO*       FAIR      71  70  96 CALM      30.07R FOG
GOLDSBORO      PTCLDY    72  69  92 N5        30.03S
WASHINGTON     CLEAR     72  70  95 N6        30.05R FOG
GREENVILLE     CLEAR     72  72 100 N3        30.07R FOG
NEW BERN       CLEAR     74  71  91 N5        30.04S FOG
WILMINGTON     CLOUDY    74  69  85 CALM      30.01S
$$

VAZ048-050500-
ELSEWHERE

CITY           SKY/WX    TMP DP  RH WIND       PRES   REMARKS
HARRISBURG PA  MOCLDY    75  67  76 SE9       30.17R
BALTIMORE      MOCLDY    76  69  79 E12       30.15R
ANNAPOLIS      PTCLDY    77  71  82 E7        30.14S
ANDREWS AFB    PTCLDY    74  69  85 E6        30.14R
PHILADELPHIA   MOCLDY    75  66  73 E12       30.19R
HENDERSON NC   PTCLDY    70  67  91 CALM      30.10R FOG
GREENSBORO     MOCLDY    71  66  84 NE5       30.11R
ROCKY MOUNT    CLEAR     72  70  93 N6        30.07R FOG
$$

VAZ100-050500-
MARINE

STATION/POSITION TIME  TEMP    WIND        PRES    WAVE   SWELL
                       AIR SEA DIR/SP/G            HT/PER HT/PER
                 (UTC) (F)     (DEG/KT/KT) (MB)    (FT/S) (FT/S)
BRANDYWINE LGT   0300   76 77   70/ 18/ 19 1020.6R
CAPE MAY NJ      0300   76 80   50/  4/  7 1020.1R
LEWES DE         0300   76 78   70/ 13/ 14 1020.2R
15NM E FENWICK I 0350   77 79   40/ 17/ 19 1019.6R   6/ 6
OCEAN-CITY-INLET 0300   77 79   70/ 11/ 16 1018.9R
GOOSES REEF MD   0400   77 80   90/ 14/ 17 1021.4R
COVE POINT MD    0300   75      90/ 12/ 16 1021.0R
SOLOMONS ISLAND  0300      83                N/A
BISHOPS HEAD MD  0300   76 82   60/ 13/ 16 1018.9R
PINEY POINT MD   0305           90/  9/ 13   N/A
POTOMAC MD       0400   78 81   80/ 16/ 17 1018.5R   1/ 3
CAMBRIDGE MD     0300   76 83   60/ 12/ 15 1019.4R
LEWISETTA VA     0300   78 82   90/ 15/ 18 1019.2R
RAPPAHANNOCK LGT 0300           40/ 14/ 16 1019.3R
STINGRAY PT      0400   80 81   70/ 16/ 17 1019.4R   2/ 3
YORK RVR RNG VA  0300   79      60/ 17/ 20 1018.0R
YORKTOWN VA      0300   79 82   60/ 17/ 19 1018.2R
JAMESTOWN VA     0400   76 83   20/  4/  6   N/A
DOMINION TERM VA 0300   80      70/ 13/ 17 1018.2R
KIPTOPEKE VA     0300      80   60/  8/ 13   N/A
CHES BAY BRIDGE  0300   80 80   40/ 17/ 20 1017.4S
CAPE HENRY VA    0300   79      60/ 16/ 19   N/A
CHESAPEAKE LGHT  0300   79      60/ 17/ 18 1018.4S
WILLOUBY STN VA  0300   80      60/ 11/ 14 1019.0R
CAPE HENRY BUOY  0328      80                N/A     3/ 5
1ST LANDING BUOY 0400      79              1017.9R   3/ 3
CAPE CHARLES BUO 0326      80                N/A     3/ 5   2/11
OFFSHORE WE BUOY 0311      80                N/A     3/ 4   2/12
64NM E OF VA BCH 0350   80 80   50/ 17/ 21 1016.6S   4/ 5   2/10
DUCK PIER NC     0300   80 80   50/ 16/ 18 1016.3S
44100 DUCK FRF   0324      80                N/A     4/ 5
44056 DUCK FRF   0311      80                N/A     3/ 5
OREGON INLET NC  0300   79 82   40/ 14/ 17 1016.4S
HATTERAS NC      0300   81 84   50/ 11/ 17 1015.7R
DIAMOND SHLS NC  0350   80 84   40/ 12/ 16 1015.5R   3/ 4   2/14
CAPE LOOKOUT NC  0400   81      50/ 16/ 17 1015.5S
$$


USA.gov is the U.S. government's official web portal to all federal, state and local government web resources and services.